EW5286 Weather Reports


Display with metric or nautical units.
time (UTC)temp
F
wind
direction
speed
MPH
gust
MPH
rain 1hr
in
rain 24hr
in
rain mn
in
humidity
%
barometer
mb
20260905193429 98 161 2.0 5.0 0.00 0.00 0.00 45 1012.8
20260905193033 97 327 1.0 4.0 0.00 0.00 0.00 45 1010.9
20260905192934 97 48 1.0 3.0 0.00 0.00 0.00 47 1012.8
20260905192435 97 297 0.0 2.0 0.00 0.00 0.00 47 1012.9
20260905191926 97 28 0.0 3.0 0.00 0.00 0.00 46 1013.0
20260905191540 97 359 0.0 3.0 0.00 0.00 0.00 45 1011.1
20260905191438 98 58 1.0 5.0 0.00 0.00 0.00 45 1013.1
20260905190939 98 344 1.0 5.0 0.00 0.00 0.00 46 1013.1
20260905190451 99 303 1.0 6.0 0.00 0.00 0.00 44 1013.2
20260905190031 99 51 1.0 6.0 0.00 0.00 0.00 44 1011.3
20260905185941 99 76 1.0 6.0 0.00 0.00 0.00 44 1013.3
20260905185450 99 259 2.0 5.0 0.00 0.00 0.00 44 1013.3
20260905184932 98 257 3.0 4.0 0.00 0.00 0.00 44 1013.3
20260905184536 97 299 0.0 5.0 0.00 0.00 0.00 46 1011.3
20260905184422 97 285 0.0 5.0 0.00 0.00 0.00 46 1013.3
20260905183925 96 58 2.0 5.0 0.00 0.00 0.00 47 1013.3
20260905183431 96 278 1.0 3.0 0.00 0.00 0.00 46 1013.4
20260905183035 96 113 0.0 4.0 0.00 0.00 0.00 46 1011.5
20260905182942 97 258 0.0 4.0 0.00 0.00 0.00 46 1013.5
20260905182453 98 275 1.0 5.0 0.00 0.00 0.00 45 1013.5
20260905182004 100 56 2.0 5.0 0.00 0.00 0.00 43 1013.6
20260905181602 100 56 0.0 3.0 0.00 0.00 0.00 42 1011.7
20260905181424 101 53 1.0 3.0 0.00 0.00 0.00 42 1013.6
20260905180935 101 50 1.0 4.0 0.00 0.00 0.00 43 1013.6
20260905180447 100 263 0.0 6.0 0.00 0.00 0.00 43 1013.7
20260905180008 99 283 1.0 6.0 0.00 0.00 0.00 44 1011.8
20260905175948 100 84 1.0 6.0 0.00 0.00 0.00 44 1013.7
20260905175438 99 228 1.0 4.0 0.00 0.00 0.00 45 1013.8
20260905174930 98 218 2.0 4.0 0.00 0.00 0.00 47 1013.8
20260905174556 97 154 0.0 4.0 0.00 0.00 0.00 45 1011.9
20260905174431 97 144 1.0 4.0 0.00 0.00 0.00 46 1013.9
20260905173922 97 57 1.0 4.0 0.00 0.00 0.00 45 1014.0
20260905173423 99 41 2.0 5.0 0.00 0.00 0.00 44 1014.0
20260905173113 97 251 0.0 5.0 0.00 0.00 0.00 45 1012.1
20260905172943 97 242 3.0 5.0 0.00 0.00 0.00 44 1014.1
20260905172507 98 229 1.0 3.0 0.00 0.00 0.00 44 1014.1
20260905171929 98 160 1.0 5.0 0.00 0.00 0.00 44 1014.2
20260905171527 97 234 2.0 5.0 0.00 0.00 0.00 46 1012.3
20260905171457 97 236 1.0 4.0 0.00 0.00 0.00 47 1014.2
20260905170947 96 187 1.0 7.0 0.00 0.00 0.00 48 1014.3
20260905170437 96 51 2.0 7.0 0.00 0.00 0.00 48 1014.3
20260905170100 96 58 1.0 4.0 0.00 0.00 0.00 48 1012.4
20260905170008 96 75 1.0 4.0 0.00 0.00 0.00 49 1014.4
20260905165428 96 67 2.0 4.0 0.00 0.00 0.00 49 1014.4
20260905164940 95 53 1.0 4.0 0.00 0.00 0.00 51 1014.4
20260905164541 94 49 1.0 6.0 0.00 0.00 0.00 51 1012.4
20260905164421 95 51 2.0 6.0 0.00 0.00 0.00 51 1014.4
20260905163933 95 65 2.0 6.0 0.00 0.00 0.00 51 1014.6
20260905163440 95 58 1.0 5.0 0.00 0.00 0.00 52 1014.6
20260905163023 94 53 2.0 5.0 0.00 0.00 0.00 52 1012.6
20260905162930 95 53 2.0 5.0 0.00 0.00 0.00 52 1014.6
20260905162432 94 50 1.0 3.0 0.00 0.00 0.00 52 1014.7
20260905161924 94 60 1.0 4.0 0.00 0.00 0.00 52 1014.7
20260905161530 93 58 0.0 4.0 0.00 0.00 0.00 53 1012.7
20260905161430 94 63 1.0 4.0 0.00 0.00 0.00 53 1014.7
20260905160931 93 66 1.0 4.0 0.00 0.00 0.00 55 1014.7
20260905160442 93 54 2.0 4.0 0.00 0.00 0.00 56 1014.7
20260905160020 92 55 0.0 4.0 0.00 0.00 0.00 56 1012.8
20260905155931 93 54 1.0 4.0 0.00 0.00 0.00 56 1014.8
20260905155444 93 56 1.0 4.0 0.00 0.00 0.00 57 1014.8
20260905154946 92 37 1.0 5.0 0.00 0.00 0.00 58 1014.8
20260905154502 91 61 1.0 5.0 0.00 0.00 0.00 57 1012.8
20260905154436 92 58 2.0 5.0 0.00 0.00 0.00 58 1014.8
20260905153926 92 58 1.0 4.0 0.00 0.00 0.00 58 1014.7
20260905153438 91 52 1.0 4.0 0.00 0.00 0.00 59 1014.7
20260905153105 91 44 1.0 3.0 0.00 0.00 0.00 59 1012.8
20260905152947 91 87 1.0 3.0 0.00 0.00 0.00 60 1014.8
20260905152426 90 55 1.0 3.0 0.00 0.00 0.00 61 1014.7
20260905151936 90 60 1.0 4.0 0.00 0.00 0.00 62 1014.7
20260905151559 89 57 0.0 4.0 0.00 0.00 0.00 63 1012.7
20260905151439 89 53 1.0 4.0 0.00 0.00 0.00 63 1014.7
20260905150929 89 47 1.0 4.0 0.00 0.00 0.00 63 1014.6
20260905150457 89 55 1.0 2.0 0.00 0.00 0.00 64 1014.6
20260905150044 88 12 0.0 1.0 0.00 0.00 0.00 65 1012.7
20260905145948 88 12 0.0 1.0 0.00 0.00 0.00 65 1014.6
20260905145429 88 321 0.0 3.0 0.00 0.00 0.00 66 1014.6
20260905144930 87 50 0.0 3.0 0.00 0.00 0.00 67 1014.6
20260905144559 86 37 0.0 3.0 0.00 0.00 0.00 66 1012.7
20260905144501 87 46 0.0 2.0 0.00 0.00 0.00 67 1014.6
20260905143920 86 45 1.0 2.0 0.00 0.00 0.00 67 1014.6
20260905143433 86 14 0.0 1.0 0.00 0.00 0.00 68 1014.5
20260905143042 85 304 0.0 1.0 0.00 0.00 0.00 69 1012.5
20260905142942 85 293 0.0 1.0 0.00 0.00 0.00 69 1014.5
20260905142424 85 283 0.0 1.0 0.00 0.00 0.00 71 1014.5
20260905141954 84 283 0.0 1.0 0.00 0.00 0.00 72 1014.5
20260905141507 83 282 0.0 1.0 0.00 0.00 0.00 72 1012.5
20260905141423 84 283 0.0 1.0 0.00 0.00 0.00 72 1014.5
20260905140934 83 283 0.0 1.0 0.00 0.00 0.00 73 1014.4
20260905140438 83 283 0.0 1.0 0.00 0.00 0.00 74 1014.4
20260905140015 82 257 0.0 1.0 0.00 0.00 0.00 75 1012.5
20260905135927 82 257 0.0 2.0 0.00 0.00 0.00 74 1014.4
20260905135439 82 271 0.0 2.0 0.00 0.00 0.00 75 1014.5
20260905134942 81 249 1.0 2.0 0.00 0.00 0.00 76 1014.5
20260905134523 80 259 1.0 2.0 0.00 0.00 0.00 77 1012.5
20260905134448 81 257 1.0 2.0 0.00 0.00 0.00 77 1014.4
20260905134027 80 260 1.0 2.0 0.00 0.00 0.00 77 1014.4
20260905133424 80 260 1.0 1.0 0.00 0.00 0.00 78 1014.4
20260905133028 79 259 1.0 2.0 0.00 0.00 0.00 79 1012.5
20260905132935 79 271 1.0 2.0 0.00 0.00 0.00 79 1014.4
20260905132437 79 260 1.0 2.0 0.00 0.00 0.00 80 1014.4
20260905131949 78 253 1.0 2.0 0.00 0.00 0.00 80 1014.4
20260905131516 77 253 1.0 2.0 0.00 0.00 0.00 81 1012.5
20260905131438 78 248 1.0 2.0 0.00 0.00 0.00 81 1014.4
20260905130948 78 245 2.0 2.0 0.00 0.00 0.00 81 1014.4
20260905130430 77 240 1.0 2.0 0.00 0.00 0.00 81 1014.4
20260905130023 77 240 1.0 2.0 0.00 0.00 0.00 82 1012.4
20260905130002 77 240 1.0 3.0 0.00 0.00 0.00 82 1014.3
20260905125430 77 239 2.0 3.0 0.00 0.00 0.00 82 1014.4
20260905125002 77 238 2.0 3.0 0.00 0.00 0.00 82 1014.4
20260905124550 77 243 1.0 3.0 0.00 0.00 0.00 81 1012.5
20260905124424 77 243 2.0 3.0 0.00 0.00 0.00 81 1014.3
20260905123926 77 246 2.0 3.0 0.00 0.00 0.00 81 1014.3
20260905123438 77 245 2.0 3.0 0.00 0.00 0.00 81 1014.3
20260905123035 77 248 2.0 3.0 0.00 0.00 0.00 81 1012.4
20260905122948 77 248 3.0 3.0 0.00 0.00 0.00 81 1014.2
20260905122438 77 240 3.0 3.0 0.00 0.00 0.00 80 1014.3
20260905122009 77 236 3.0 3.0 0.00 0.00 0.00 80 1014.3
20260905121603 77 241 3.0 3.0 0.00 0.00 0.00 80 1012.3
20260905121427 77 241 3.0 3.0 0.00 0.00 0.00 80 1014.2
20260905120956 77 241 3.0 3.0 0.00 0.00 0.00 80 1014.2
20260905120447 77 241 2.0 3.0 0.00 0.00 0.00 80 1014.1
20260905120026 77 241 3.0 3.0 0.00 0.00 0.00 80 1012.2
20260905115936 78 241 3.0 3.0 0.00 0.00 0.00 80 1014.1
20260905115447 78 244 2.0 2.0 0.00 0.00 0.00 79 1014.1
20260905114929 78 244 2.0 3.0 0.00 0.00 0.00 79 1014.1
20260905114538 77 244 2.0 3.0 0.00 0.00 0.00 79 1012.1
20260905114441 78 244 2.0 3.0 0.00 0.00 0.00 79 1014.0
20260905113921 78 244 2.0 2.0 0.00 0.00 0.00 79 1014.0
20260905113448 77 244 2.0 2.0 0.00 0.00 0.00 79 1013.9
20260905113019 77 244 2.0 2.0 0.00 0.00 0.00 79 1012.0
20260905112957 77 244 2.0 2.0 0.00 0.00 0.00 79 1013.9
20260905112426 77 246 2.0 2.0 0.00 0.00 0.00 79 1013.9
20260905111929 77 247 1.0 2.0 0.00 0.00 0.00 78 1013.9
20260905111507 77 253 0.0 1.0 0.00 0.00 0.00 78 1012.0
20260905111441 78 253 1.0 1.0 0.00 0.00 0.00 78 1013.9
20260905110931 78 253 1.0 1.0 0.00 0.00 0.00 78 1013.8
20260905110433 78 263 0.0 1.0 0.00 0.00 0.00 78 1013.8
20260905110117 77 255 0.0 1.0 0.00 0.00 0.00 78 1011.9
20260905105952 77 252 0.0 1.0 0.00 0.00 0.00 78 1013.8
20260905105432 78 252 1.0 1.0 0.00 0.00 0.00 78 1013.8
20260905104943 78 252 1.0 1.0 0.00 0.00 0.00 77 1013.9
20260905104601 78 252 0.0 1.0 0.00 0.00 0.00 76 1011.9
20260905104423 79 253 0.0 1.0 0.00 0.00 0.00 76 1013.8
20260905103935 79 255 0.0 1.0 0.00 0.00 0.00 75 1013.7
20260905103447 79 255 0.0 0.0 0.00 0.00 0.00 75 1013.8
20260905103006 79 255 0.0 0.0 0.00 0.00 0.00 75 1011.9
20260905102929 79 255 0.0 0.0 0.00 0.00 0.00 75 1013.8
20260905102440 79 255 0.0 0.0 0.00 0.00 0.00 75 1013.7
20260905101928 79 255 0.0 0.0 0.00 0.00 0.00 75 1013.7
20260905101555 79 255 0.0 1.0 0.00 0.00 0.00 74 1011.8
20260905101428 79 255 0.0 1.0 0.00 0.00 0.00 74 1013.7
20260905100936 79 255 0.0 2.0 0.00 0.00 0.00 75 1013.8
20260905100447 79 251 1.0 3.0 0.00 0.00 0.00 74 1013.8
20260905100121 79 251 1.0 3.0 0.00 0.00 0.00 74 1011.9
20260905095928 80 251 2.0 3.0 0.00 0.00 0.00 74 1013.7
20260905095440 80 243 2.0 3.0 0.00 0.00 0.00 74 1013.7
20260905094948 80 231 2.0 3.0 0.00 0.00 0.00 74 1013.8
20260905094544 79 230 2.0 3.0 0.00 0.00 0.00 73 1011.9
20260905094439 80 230 2.0 3.0 0.00 0.00 0.00 73 1013.8
20260905093937 80 231 1.0 2.0 0.00 0.00 0.00 73 1013.7
20260905093425 80 230 1.0 2.0 0.00 0.00 0.00 73 1013.8
20260905093044 80 226 1.0 2.0 0.00 0.00 0.00 72 1011.8
20260905092925 80 240 1.0 2.0 0.00 0.00 0.00 72 1013.7
20260905092436 81 264 0.0 1.0 0.00 0.00 0.00 72 1013.7
20260905091927 81 264 0.0 1.0 0.00 0.00 0.00 71 1013.8
20260905091552 81 264 0.0 1.0 0.00 0.00 0.00 71 1011.8
20260905091428 81 264 0.0 1.0 0.00 0.00 0.00 71 1013.7
20260905090949 81 264 0.0 1.0 0.00 0.00 0.00 71 1013.6
20260905090425 81 250 0.0 2.0 0.00 0.00 0.00 72 1013.6
20260905090015 80 236 0.0 2.0 0.00 0.00 0.00 72 1011.6
20260905085934 81 236 0.0 2.0 0.00 0.00 0.00 72 1013.5
20260905085424 81 236 2.0 2.0 0.00 0.00 0.00 72 1013.5
20260905084937 81 236 2.0 3.0 0.00 0.00 0.00 72 1013.5
20260905084606 80 236 2.0 3.0 0.00 0.00 0.00 72 1011.7
20260905084507 81 236 2.0 3.0 0.00 0.00 0.00 72 1013.6
20260905083927 81 233 2.0 3.0 0.00 0.00 0.00 72 1013.5
20260905083439 81 220 2.0 3.0 0.00 0.00 0.00 72 1013.4
20260905083054 81 240 2.0 2.0 0.00 0.00 0.00 71 1011.5
20260905082920 81 243 2.0 2.0 0.00 0.00 0.00 71 1013.4
20260905082432 81 243 2.0 2.0 0.00 0.00 0.00 71 1013.4
20260905081943 82 243 2.0 3.0 0.00 0.00 0.00 70 1013.4
20260905081546 81 243 1.0 3.0 0.00 0.00 0.00 70 1011.4
20260905081452 82 243 1.0 3.0 0.00 0.00 0.00 70 1013.3
20260905080943 82 243 2.0 2.0 0.00 0.00 0.00 70 1013.3
20260905080425 82 243 1.0 2.0 0.00 0.00 0.00 70 1013.2
20260905080026 81 243 1.0 2.0 0.00 0.00 0.00 70 1011.3
20260905075935 82 243 2.0 2.0 0.00 0.00 0.00 70 1013.2
20260905075443 82 243 2.0 2.0 0.00 0.00 0.00 70 1013.2
20260905074923 82 243 1.0 2.0 0.00 0.00 0.00 70 1013.3
20260905074530 81 243 1.0 2.0 0.00 0.00 0.00 70 1011.3
20260905074433 81 243 1.0 2.0 0.00 0.00 0.00 70 1013.3
20260905073935 82 243 1.0 1.0 0.00 0.00 0.00 70 1013.2
20260905073426 82 243 1.0 2.0 0.00 0.00 0.00 70 1013.1
20260905073039 81 243 1.0 2.0 0.00 0.00 0.00 70 1011.3
20260905072938 82 243 1.0 2.0 0.00 0.00 0.00 70 1013.2
20260905072439 82 243 2.0 2.0 0.00 0.00 0.00 70 1013.2
20260905071949 82 243 1.0 2.0 0.00 0.00 0.00 70 1013.2
20260905071527 81 243 1.0 2.0 0.00 0.00 0.00 70 1011.3
20260905071441 82 243 1.0 2.0 0.00 0.00 0.00 70 1013.2
20260905070922 82 243 1.0 3.0 0.00 0.00 0.00 70 1013.3
20260905070433 82 238 1.0 3.0 0.00 0.00 0.00 70 1013.4
20260905070032 81 238 0.0 3.0 0.00 0.00 0.00 70 1011.4
20260905065944 82 231 1.0 3.0 0.00 0.00 0.00 70 1013.3
20260905065453 82 251 1.0 2.0 0.00 0.00 0.00 69 1013.3
20260905064934 82 251 1.0 3.0 0.00 0.00 0.00 69 1013.4
20260905064514 82 245 2.0 4.0 0.00 0.00 0.00 69 1011.5
20260905064422 82 245 2.0 4.0 0.00 0.00 0.00 69 1013.4
20260905063934 82 245 3.0 4.0 0.00 0.00 0.00 69 1013.3
20260905063437 82 243 3.0 4.0 0.00 0.00 0.00 69 1013.4
20260905063020 82 242 3.0 4.0 0.00 0.00 0.00 68 1011.6
20260905062926 82 242 3.0 4.0 0.00 0.00 0.00 68 1013.4
20260905062425 83 242 3.0 4.0 0.00 0.00 0.00 68 1013.4
20260905061938 83 242 3.0 4.0 0.00 0.00 0.00 67 1013.3
20260905061528 83 242 3.0 5.0 0.00 0.00 0.00 67 1011.5
20260905061428 83 242 3.0 5.0 0.00 0.00 0.00 67 1013.4
20260905060930 84 240 4.0 5.0 0.00 0.00 0.00 66 1013.4
20260905060450 84 241 3.0 7.0 0.00 0.00 0.00 66 1013.4
20260905060012 84 242 4.0 7.0 0.00 0.00 0.00 65 1011.5
20260905055927 84 240 5.0 7.0 0.00 0.00 0.00 65 1013.5
20260905055438 85 243 5.0 6.0 0.00 0.00 0.00 65 1013.5
20260905054940 85 230 5.0 6.0 0.00 0.00 0.00 64 1013.5
20260905054515 84 259 4.0 6.0 0.00 0.00 0.00 64 1011.7
20260905054428 85 233 5.0 6.0 0.00 0.00 0.00 64 1013.5
20260905053940 85 240 5.0 6.0 0.00 0.00 0.00 64 1013.5
20260905053510 85 239 5.0 6.0 0.00 0.00 0.00 63 1013.5
20260905053105 85 243 4.0 6.0 0.00 0.00 0.00 63 1011.6
20260905052928 85 241 5.0 6.0 0.00 0.00 0.00 63 1013.5
20260905052441 86 241 5.0 6.0 0.00 0.00 0.00 63 1013.4
20260905051923 86 232 4.0 7.0 0.00 0.00 0.00 62 1013.4
20260905051517 85 237 4.0 7.0 0.00 0.00 0.00 62 1011.6
20260905051432 86 239 5.0 7.0 0.00 0.00 0.00 62 1013.5
20260905050943 86 240 5.0 6.0 0.00 0.00 0.00 62 1013.5
20260905050451 86 238 4.0 7.0 0.00 0.00 0.00 62 1013.6
20260905050105 86 236 3.0 7.0 0.00 0.00 0.00 61 1011.7
20260905045929 86 240 4.0 7.0 0.00 0.00 0.00 61 1013.6
20260905045500 86 236 3.0 5.0 0.00 0.00 0.00 61 1013.6
20260905044930 86 237 4.0 5.0 0.00 0.00 0.00 61 1013.5
20260905044545 86 207 3.0 5.0 0.00 0.00 0.00 60 1011.6
20260905044503 86 226 4.0 5.0 0.00 0.00 0.00 60 1013.5
20260905043922 87 234 4.0 5.0 0.00 0.00 0.00 60 1013.5
20260905043434 87 235 3.0 7.0 0.00 0.00 0.00 60 1013.5
20260905043029 86 221 3.0 7.0 0.00 0.00 0.00 59 1011.6
20260905042925 87 237 4.0 7.0 0.00 0.00 0.00 59 1013.5
20260905042426 87 233 4.0 7.0 0.00 0.00 0.00 60 1013.5
20260905041937 87 236 4.0 6.0 0.00 0.00 0.00 60 1013.5
20260905041535 87 236 3.0 6.0 0.00 0.00 0.00 59 1011.7
20260905041426 87 238 4.0 6.0 0.00 0.00 0.00 59 1013.6
20260905040935 87 228 4.0 5.0 0.00 0.00 0.00 60 1013.6
20260905040437 87 238 4.0 5.0 0.00 0.00 0.00 60 1013.6
20260905040019 87 229 3.0 5.0 0.00 0.00 0.00 59 1011.8
20260905035927 87 232 3.0 5.0 0.00 0.00 0.00 59 1013.7
20260905035434 88 224 3.0 5.0 0.00 0.00 0.00 59 1013.7
20260905034946 88 226 3.0 5.0 0.00 0.00 0.00 59 1013.7
20260905034510 87 231 2.0 5.0 0.00 0.00 0.00 59 1011.8
20260905034446 88 191 3.0 5.0 0.00 0.00 0.00 59 1013.6
20260905033936 88 240 3.0 6.0 0.00 0.00 0.00 58 1013.6
20260905033428 88 195 4.0 6.0 0.00 0.00 0.00 58 1013.7
20260905033102 88 199 3.0 6.0 0.00 0.00 0.00 58 1011.7
20260905032929 88 207 3.0 6.0 0.00 0.00 0.00 58 1013.6
20260905032420 88 169 3.0 6.0 0.00 0.00 0.00 58 1013.7
20260905031923 89 226 3.0 5.0 0.00 0.00 0.00 57 1013.7
20260905031620 88 229 3.0 6.0 0.00 0.00 0.00 57 1011.7
20260905031442 89 231 3.0 6.0 0.00 0.00 0.00 57 1013.6
20260905030922 89 210 3.0 6.0 0.00 0.00 0.00 57 1013.5
20260905030455 89 258 3.0 6.0 0.00 0.00 0.00 57 1013.6
20260905030026 88 219 2.0 5.0 0.00 0.00 0.00 57 1011.7
20260905025922 89 226 3.0 5.0 0.00 0.00 0.00 57 1013.6
20260905025423 89 231 2.0 4.0 0.00 0.00 0.00 57 1013.6
20260905024935 89 224 2.0 5.0 0.00 0.00 0.00 57 1013.6
20260905024538 89 177 3.0 5.0 0.00 0.00 0.00 57 1011.7
20260905024423 89 172 3.0 5.0 0.00 0.00 0.00 57 1013.5
20260905023931 89 175 3.0 6.0 0.00 0.00 0.00 57 1013.5
20260905023433 89 180 3.0 6.0 0.00 0.00 0.00 57 1013.4
20260905023022 89 189 3.0 6.0 0.00 0.00 0.00 57 1011.5
20260905022923 89 224 3.0 6.0 0.00 0.00 0.00 57 1013.4
20260905022426 89 185 4.0 6.0 0.00 0.00 0.00 57 1013.4
20260905021939 89 262 3.0 6.0 0.00 0.00 0.00 56 1013.4
20260905021526 89 205 2.0 6.0 0.00 0.00 0.00 56 1011.5
20260905021428 89 219 2.0 6.0 0.00 0.00 0.00 56 1013.3
20260905020930 90 190 3.0 6.0 0.00 0.00 0.00 56 1013.3
20260905020422 90 217 3.0 6.0 0.00 0.00 0.00 56 1013.4
20260905020034 89 221 3.0 5.0 0.00 0.00 0.00 55 1011.4
20260905015932 90 230 3.0 5.0 0.00 0.00 0.00 55 1013.4
20260905015434 90 196 2.0 5.0 0.00 0.00 0.00 55 1013.3
20260905014925 90 201 3.0 5.0 0.00 0.00 0.00 55 1013.3
20260905014540 89 196 2.0 5.0 0.00 0.00 0.00 55 1011.4
20260905014424 90 181 2.0 5.0 0.00 0.00 0.00 55 1013.3
20260905013935 90 203 2.0 4.0 0.00 0.00 0.00 55 1013.3
20260905013425 90 219 2.0 4.0 0.00 0.00 0.00 54 1013.3
20260905013026 89 166 2.0 4.0 0.00 0.00 0.00 54 1011.3
20260905012935 90 198 2.0 4.0 0.00 0.00 0.00 54 1013.2
20260905012447 90 205 2.0 4.0 0.00 0.00 0.00 54 1013.2
20260905011929 90 187 2.0 4.0 0.00 0.00 0.00 54 1013.2
20260905011540 90 250 1.0 4.0 0.00 0.00 0.00 54 1011.3
20260905011441 90 233 2.0 4.0 0.00 0.00 0.00 54 1013.2
20260905010944 90 236 2.0 4.0 0.00 0.00 0.00 53 1013.1
20260905010427 90 172 2.0 5.0 0.00 0.00 0.00 53 1013.1
20260905010018 90 154 2.0 5.0 0.00 0.00 0.00 53 1011.2
20260905005937 90 200 2.0 5.0 0.00 0.00 0.00 53 1013.1
20260905005447 91 193 2.0 6.0 0.00 0.00 0.00 52 1013.0
20260905004930 91 218 3.0 6.0 0.00 0.00 0.00 52 1013.0
20260905004529 90 216 2.0 5.0 0.00 0.00 0.00 52 1011.0
20260905004443 91 181 3.0 5.0 0.00 0.00 0.00 52 1012.9
20260905003923 91 224 2.0 4.0 0.00 0.00 0.00 52 1012.9
20260905003434 91 224 2.0 4.0 0.00 0.00 0.00 51 1012.9
20260905003036 91 231 1.0 4.0 0.00 0.00 0.00 51 1011.0
20260905002945 92 226 1.0 4.0 0.00 0.00 0.00 51 1012.9
20260905002427 92 201 1.0 5.0 0.00 0.00 0.00 50 1012.8
20260905001939 92 231 1.0 5.0 0.00 0.00 0.00 50 1012.8
20260905001552 92 201 1.0 5.0 0.00 0.00 0.00 49 1010.9
20260905001450 92 237 1.0 5.0 0.00 0.00 0.00 49 1012.8
20260905000931 93 271 2.0 7.0 0.00 0.00 0.00 49 1012.8
20260905000502 93 229 2.0 7.0 0.00 0.00 0.00 49 1012.8
20260905000034 93 265 1.0 4.0 0.00 0.00 0.00 49 1010.9
20260904235950 93 246 1.0 6.0 0.00 0.00 0.00 49 1012.8
20260904235441 94 238 1.0 7.0 0.00 0.00 0.00 48 1012.7
20260904234924 94 221 4.0 7.0 0.00 0.00 0.00 47 1012.7
20260904234515 94 221 1.0 7.0 0.00 0.00 0.00 47 1010.7
20260904234450 94 281 2.0 7.0 0.00 0.00 0.00 47 1012.6
20260904233920 94 260 3.0 7.0 0.00 0.00 0.00 46 1012.7
20260904233423 95 176 2.0 5.0 0.00 0.00 0.00 47 1012.7
20260904233004 94 248 2.0 6.0 0.00 0.00 0.00 46 1010.6
20260904232934 95 206 3.0 7.0 0.00 0.00 0.00 46 1012.6
20260904232425 95 220 2.0 7.0 0.00 0.00 0.00 46 1012.4
20260904231928 95 209 2.0 6.0 0.00 0.00 0.00 46 1012.3
20260904231514 95 316 0.0 6.0 0.00 0.00 0.00 46 1010.4
20260904231439 95 302 0.0 6.0 0.00 0.00 0.00 46 1012.4
20260904230949 95 250 1.0 6.0 0.00 0.00 0.00 46 1012.4
20260904230439 96 275 3.0 6.0 0.00 0.00 0.00 47 1012.3
20260904230112 95 254 1.0 6.0 0.00 0.00 0.00 47 1010.5
20260904230010 96 231 1.0 6.0 0.00 0.00 0.00 47 1012.4
20260904225428 96 71 0.0 6.0 0.00 0.00 0.00 46 1012.3
20260904224947 96 10 1.0 6.0 0.00 0.00 0.00 45 1012.2
20260904224505 96 247 1.0 6.0 0.00 0.00 0.00 45 1010.4
20260904224428 96 234 1.0 5.0 0.00 0.00 0.00 45 1012.2
20260904223936 97 173 1.0 5.0 0.00 0.00 0.00 44 1012.4
20260904223508 97 280 0.0 9.0 0.00 0.00 0.00 45 1012.4
20260904223103 96 269 1.0 9.0 0.00 0.00 0.00 45 1010.5
20260904222928 97 269 3.0 9.0 0.00 0.00 0.00 45 1012.4
20260904222459 97 1 3.0 6.0 0.00 0.00 0.00 45 1012.3
20260904221928 97 202 1.0 6.0 0.00 0.00 0.00 45 1012.3
20260904221545 97 292 1.0 6.0 0.00 0.00 0.00 45 1010.4
20260904221501 97 300 3.0 6.0 0.00 0.00 0.00 45 1012.3
20260904220949 97 240 2.0 6.0 0.00 0.00 0.00 44 1012.4
20260904220431 97 309 2.0 6.0 0.00 0.00 0.00 43 1012.4
20260904220122 97 146 2.0 6.0 0.00 0.00 0.00 43 1010.5
20260904215950 97 186 2.0 6.0 0.00 0.00 0.00 44 1012.5
20260904215432 96 238 2.0 6.0 0.00 0.00 0.00 45 1012.5
20260904215003 96 253 2.0 8.0 0.00 0.00 0.00 46 1012.6
20260904214536 96 60 2.0 8.0 0.00 0.00 0.00 47 1010.7
20260904214431 97 346 3.0 8.0 0.00 0.00 0.00 47 1012.7
20260904213930 96 354 0.0 4.0 0.00 0.00 0.00 47 1012.7
20260904213422 96 41 1.0 5.0 0.00 0.00 0.00 47 1012.8
20260904213044 97 307 1.0 5.0 0.00 0.00 0.00 47 1010.8
20260904212923 97 61 2.0 5.0 0.00 0.00 0.00 47 1012.7
20260904212435 97 60 2.0 5.0 0.00 0.00 0.00 47 1012.8
20260904211927 97 47 2.0 7.0 0.00 0.00 0.00 47 1012.8
20260904211552 97 58 2.0 7.0 0.00 0.00 0.00 47 1010.9
20260904211457 97 16 3.0 7.0 0.00 0.00 0.00 47 1012.8
20260904210938 98 2 2.0 7.0 0.00 0.00 0.00 46 1012.9
20260904210449 99 280 1.0 5.0 0.00 0.00 0.00 46 1013.0
20260904210025 99 60 0.0 5.0 0.00 0.00 0.00 45 1011.0
20260904205958 99 48 1.0 5.0 0.00 0.00 0.00 45 1013.0
20260904205446 99 42 1.0 5.0 0.00 0.00 0.00 45 1013.1
20260904204936 100 34 2.0 6.0 0.00 0.00 0.00 43 1013.2
20260904204547 99 212 1.0 8.0 0.00 0.00 0.00 42 1011.3
20260904204447 99 255 2.0 8.0 0.00 0.00 0.00 42 1013.2
20260904203448 100 213 3.0 10.0 0.00 0.00 0.00 42 1013.2
20260904203103 99 257 3.0 13.0 0.00 0.00 0.00 41 1011.3
20260904202945 100 113 2.0 13.0 0.00 0.00 0.00 41 1013.3
20260904202434 101 235 4.0 8.0 0.00 0.00 0.00 41 1013.2
20260904201926 100 234 1.0 6.0 0.00 0.00 0.00 41 1013.4
20260904201554 100 238 3.0 6.0 0.00 0.00 0.00 41 1011.5
20260904201427 100 200 3.0 6.0 0.00 0.00 0.00 41 1013.4
20260904200957 101 216 2.0 5.0 0.00 0.00 0.00 40 1013.5
20260904200428 101 131 2.0 5.0 0.00 0.00 0.00 41 1013.5
20260904200049 100 217 1.0 3.0 0.00 0.00 0.00 40 1011.7
20260904195936 101 269 0.0 3.0 0.00 0.00 0.00 39 1013.7
20260904195446 101 8 1.0 5.0 0.00 0.00 0.00 41 1013.7
20260904194936 100 293 1.0 6.0 0.00 0.00 0.00 43 1013.8
20260904194608 100 191 2.0 6.0 0.00 0.00 0.00 41 1011.9
20260904194439 101 193 3.0 5.0 0.00 0.00 0.00 42 1013.9
20260904193929 101 280 1.0 4.0 0.00 0.00 0.00 42 1013.9